Location: Presov
(49.0000°N, 21.2500°E)
Time: 14:07:17
(UTC+01:00)

CAS-4B - Visible Passes

Search period start: 05 December 2023 00:00
Search period end: 15 December 2023 00:00
Orbit: 494 x 508 km, 43.0° (Epoch: 05 December)

Date Brightness Start Highest point End Pass type
(mag) Time Alt. Az. Time Alt. Az. Time Alt. Az.
05 Dec ? 17:10:40 10° WSW 17:14:08 32° S 17:16:53 14° SE visible
05 Dec ? 18:50:14 10° WSW 18:51:30 15° SW 18:51:30 15° SW visible
06 Dec ? 16:48:48 10° WSW 16:52:16 32° S 16:55:44 10° SE visible
06 Dec ? 18:28:26 10° WSW 18:30:57 17° SSW 18:30:57 17° SSW visible
07 Dec ? 16:26:56 10° WSW 16:30:24 31° S 16:33:50 10° SE visible
07 Dec ? 18:06:38 10° WSW 18:09:04 16° SSW 18:10:29 14° S visible
08 Dec ? 17:44:48 10° WSW 17:47:08 15° SSW 17:49:29 10° S visible
09 Dec ? 17:22:58 10° WSW 17:25:12 15° SSW 17:27:25 10° S visible
10 Dec ? 17:01:06 10° WSW 17:03:13 14° SSW 17:05:21 10° S visible
11 Dec ? 16:39:14 10° WSW 16:41:14 14° SSW 16:43:13 10° S visible
12 Dec ? 16:17:20 10° WSW 16:19:13 13° SSW 16:21:05 10° S visible
